Wind_Speed
7 7 8 9 11 11 11 11 11 11 11 10 10 9 8 7 6 6 5 4 3 3 2 3 3 3 3 5 5 5 7 7 7 7 7 7 8 8 9 10 10 11 10
6 6 6 7 8 9 9 10 11 11 10 10 10 9 8 7 7 6 5 5 4 3 3 3 3 4 4 4 5 5 6 7 8 8 8 8 8 9 9 10 11 11 12
5 6 6 6 6 7 8 8 9 10 10 10 10 9 9 7 6 6 5 5 5 4 3 3 4 4 5 6 6 6 6 8 8 9 9 9 10 10 10 10 11 12 12
5 5 5 5 5 6 6 8 8 9 9 10 9 9 8 8 7 6 5 5 5 4 4 4 5 5 6 6 6 7 7 7 7 9 9 10 10 11 10 11 12 13 13
6 6 6 6 6 6 6 7 7 8 8 9 8 9 8 8 8 7 6 5 5 5 5 5 5 5 6 6 6 7 7 7 8 8 9 9 10 10 11 12 13 12 13
8 7 7 7 7 7 7 7 7 8 8 8 8 8 8 8 8 7 6 6 6 6 6 6 5 6 6 7 7 7 7 8 9 9 9 10 11 11 12 12 13 13 13
9 9 9 9 9 8 8 9 8 8 9 9 8 8 8 9 8 8 7 7 7 7 7 7 6 6 7 7 7 7 7 8 9 9 10 10 10 11 11 11 12 12 13
12 11 10 10 10 10 10 10 9 9 9 10 10 9 9 9 9 9 8 8 8 8 8 8 8 8 8 8 8 8 8 9 9 9 10 10 10 10 11 11 12 12 13
13 13 11 10 11 11 11 10 10 11 11 11 11 11 10 10 10 9 9 9 9 9 9 10 10 9 9 10 9 9 9 9 10 10 10 11 12 12 13 13 13 13 14
14 14 13 12 12 13 13 11 10 11 12 13 13 13 13 13 12 11 11 11 11 11 11 11 11 11 11 11 11 11 11 11 10 11 11 12 13 13 14 15 15 15 15
15 15 14 14 15 15 14 13 13 13 13 14 14 15 15 14 13 13 13 14 14 14 14 13 13 13 13 12 12 13 13 13 13 13 13 14 15 15 15 16 17 17 17
17 17 16 16 16 17 16 16 16 15 15 15 16 16 16 16 15 15 16 16 16 17 17 16 16 15 15 15 15 14 14 15 15 15 15 16 17 17 18 18 19 19 19
18 19 18 17 17 17 18 18 17 18 17 17 18 18 17 17 17 17 18 19 19 20 20 20 19 18 18 17 17 17 17 17 17 18 18 19 19 19 20 20 20 21 21
19 19 19 18 18 18 18 18 19 19 19 19 19 20 20 19 19 20 20 21 21 21 21 21 21 21 20 20 20 19 19 20 20 20 20 21 21 20 21 21 22 22 23
19 20 20 20 19 19 19 20 21 21 20 20 20 21 21 22 22 23 23 23 22 22 22 21 22 22 21 21 21 21 21 21 22 22 23 23 23 22 22 23 23 24 24
21 21 20 19 19 20 20 21 21 21 21 21 22 23 23 24 24 24 24 23 24 23 23 22 21 22 22 22 23 23 23 23 23 24 25 25 24 24 24 25 25 25 25
23 22 21 20 21 22 23 22 23 23 24 24 24 24 24 24 24 25 24 24 25 25 25 25 24 24 24 24 24 24 24 24 24 24 25 25 25 26 26 27 27 28 28
25 24 24 23 24 25 26 26 25 26 26 26 26 25 25 25 26 26 26 26 26 26 26 26 26 27 26 26 26 25 25 24 25 25 24 26 27 27 28 28 29 29 28
27 27 27 27 27 28 28 28 28 28 28 27 27 27 27 27 26 27 27 27 27 26 26 26 27 27 27 27 27 27 26 26 27 27 27 27 28 29 29 29 30 30 30
30 30 30 29 29 30 29 30 30 29 28 28 29 29 29 28 28 28 28 28 28 27 26 26 26 27 27 27 28 28 28 28 28 29 29 29 30 30 31 31 31 31 31
31 32 32 31 32 33 32 30 30 29 29 29 29 30 30 30 30 29 29 29 30 29 28 28 28 28 29 30 30 30 30 30 29 29 30 30 30 30 31 32 32 31 32
32 32 33 33 34 34 33 32 31 30 31 32 32 32 32 32 32 32 31 31 31 31 31 31 31 31 31 32 32 32 32 32 32 32 32 33 33 32 32 32 32 33 33
35 35 35 35 35 35 35 34 33 33 33 34 34 34 34 34 34 33 33 32 32 32 32 32 32 33 34 34 34 33 32 32 32 32 32 33 34 34 34 34 34 34 34
37 37 37 38 36 36 36 35 35 35 35 35 35 36 36 36 36 35 35 35 34 33 33 33 34 34 35 34 34 34 32 33 34 34 34 34 34 35 35 35 35 35 35
37 37 37 37 36 35 36 37 37 37 37 36 37 37 37 37 37 37 37 37 36 35 35 34 34 35 35 35 36 35 34 34 35 36 36 36 36 36 36 36 35 36 35
38 37 37 37 36 36 36 36 37 37 37 37 37 38 37 37 37 36 36 35 36 36 36 35 35 35 35 34 35 35 35 36 36 36 37 37 37 37 37 36 36 36 36
Wind_Direction
22 26 30 35 38 42 44 43 42 41 43 44 42 36 33 29 25 20 17 13 357 334 316 302 299 291 275 265 263 261 249 248 244 249 256 257 261 259 259 262 264 265 267
10 7 14 23 30 31 37 40 38 36 35 35 35 31 25 23 21 15 13 7 359 338 320 304 299 292 284 270 265 267 266 259 253 256 262 266 267 269 268 268 269 270 271
351 352 357 7 14 15 18 28 33 29 27 27 25 22 20 16 12 9 8 2 347 332 317 307 300 291 280 273 270 269 270 264 260 260 262 264 267 269 271 272 272 273 275
334 334 340 343 353 356 358 7 18 18 16 13 13 11 11 6 359 354 356 358 353 336 318 311 300 300 288 279 271 271 270 268 264 264 266 267 268 268 271 273 276 276 274
310 319 323 322 330 334 334 340 353 356 359 1 0 1 358 353 348 343 340 337 336 331 321 310 297 296 295 288 279 273 272 269 268 268 268 269 270 271 273 274 277 277 273
289 302 310 314 315 315 317 320 326 333 339 347 351 349 345 341 338 342 339 332 322 317 313 304 300 300 300 298 291 284 277 270 269 269 270 271 273 273 273 277 279 278 276
278 285 294 301 307 306 306 307 310 313 322 329 333 335 331 331 330 329 328 325 321 314 307 301 297 296 297 296 294 290 286 278 271 268 270 272 273 273 275 277 280 281 282
275 278 285 295 301 299 297 293 297 306 311 316 317 318 318 316 316 317 313 312 312 309 303 302 298 293 292 292 292 289 285 283 280 276 274 271 272 274 275 277 279 279 282
275 273 273 282 289 289 291 294 291 296 300 303 308 307 306 303 301 303 303 301 300 297 296 298 297 295 292 289 287 284 280 277 279 279 278 277 276 278 277 278 279 280 282
273 268 266 271 278 280 285 288 291 296 297 302 307 304 301 298 290 293 293 291 289 288 290 291 288 289 289 285 282 280 277 274 274 277 278 280 281 281 281 281 280 281 281
267 265 262 266 271 277 283 288 286 290 296 297 303 302 297 298 296 289 291 289 287 288 290 289 286 284 284 285 283 281 276 276 275 275 277 281 283 283 281 281 281 282 282
259 261 261 262 267 274 282 286 288 290 292 296 296 297 293 291 290 290 289 288 289 286 284 285 284 283 280 279 279 280 279 279 279 281 280 280 282 282 283 282 282 283 282
258 258 260 264 268 273 278 282 283 286 289 292 292 293 292 288 287 287 287 286 287 289 284 281 279 279 279 277 276 276 276 277 278 280 282 282 282 282 282 282 282 282 283
261 261 263 266 269 273 278 282 283 284 285 286 286 287 288 286 286 286 287 288 289 290 291 284 278 277 277 276 274 274 274 275 277 278 279 281 281 280 282 283 283 284 285
263 264 266 269 270 273 276 279 282 282 283 285 284 284 284 285 287 288 288 289 288 289 290 287 277 274 276 276 275 275 275 278 278 277 276 278 279 279 281 285 285 285 287
265 268 270 272 271 274 278 279 280 281 282 283 284 286 287 286 287 289 288 289 287 287 286 285 280 276 275 274 275 274 274 278 279 278 277 278 279 281 282 283 284 285 286
267 268 268 270 273 275 277 280 279 278 281 283 284 285 287 285 286 286 287 285 285 285 282 280 277 274 272 271 272 272 273 276 279 278 278 279 280 281 282 282 283 284 285
270 270 268 270 273 275 277 276 276 279 280 281 282 282 284 285 286 287 286 285 285 286 284 279 276 274 273 272 273 273 274 275 277 279 280 281 283 283 284 284 285 286 287
269 270 271 271 272 273 275 275 276 278 279 280 280 281 283 284 285 286 285 285 285 285 284 283 279 276 276 274 275 275 275 276 277 279 280 281 283 285 286 286 288 287 287
270 270 269 269 272 273 273 275 275 277 280 279 279 280 280 281 283 284 285 284 286 286 282 281 280 279 277 277 276 274 274 275 276 278 280 281 283 284 285 285 288 288 286
268 269 270 271 274 274 273 276 278 278 279 279 279 279 280 282 283 283 283 283 284 285 283 280 279 279 278 277 278 276 274 275 277 279 279 279 281 283 284 286 286 287 286
265 269 270 273 273 272 272 274 278 278 279 279 280 280 280 281 282 281 281 282 283 282 281 280 280 280 279 277 277 275 274 276 278 280 279 279 280 281 283 284 285 286 286
266 268 270 273 273 273 275 274 276 276 277 278 279 280 280 281 282 284 283 281 281 281 281 280 279 280 280 280 277 276 277 278 280 280 280 279 280 282 283 284 286 286 285
266 268 270 273 273 274 275 274 275 275 277 278 279 279 279 280 281 282 283 282 279 280 280 279 279 280 282 280 279 278 278 280 280 280 279 278 279 280 282 284 285 285 284
265 267 270 272 273 274 274 274 275 276 277 277 278 279 279 280 281 282 283 284 281 281 280 279 278 280 280 279 278 277 278 279 279 279 277 277 277 278 280 282 283 284 283
266 267 269 271 273 275 276 276 275 276 277 277 278 279 279 280 281 281 280 281 281 279 279 279 281 280 278 277 277 277 278 278 279 279 278 277 277 278 279 280 282 282 282
Height
5906 5905 5904 5903 5901 5900 5899 5897 5896 5895 5894 5892 5891 5890 5889 5888 5887 5886 5886 5885 5884 5884 5884 5884 5884 5883 5883 5884 5884 5884 5884 5884 5885 5886 5886 5886 5887 5887 5887 5887 5888 5888 5888
5907 5905 5904 5903 5902 5901 5900 5898 5897 5896 5895 5893 5892 5891 5890 5889 5888 5887 5886 5885 5885 5884 5884 5883 5883 5883 5883 5883 5883 5883 5883 5883 5883 5884 5884 5884 5885 5885 5885 5885 5885 5885 5885
5907 5905 5904 5903 5902 5901 5900 5899 5897 5896 5895 5894 5893 5891 5890 5889 5888 5887 5886 5885 5885 5884 5883 5883 5882 5882 5882 5881 5881 5881 5881 5881 5881 5882 5882 5882 5883 5883 5883 5883 5883 5883 5883
5906 5905 5904 5903 5902 5901 5900 5899 5897 5896 5895 5894 5893 5892 5891 5890 5888 5887 5886 5885 5884 5884 5883 5882 5882 5881 5881 5880 5880 5880 5879 5879 5880 5880 5880 5880 5880 5880 5880 5881 5880 5880 5880
5905 5904 5903 5903 5902 5901 5900 5899 5897 5896 5895 5894 5893 5891 5890 5889 5888 5887 5886 5885 5884 5883 5882 5881 5881 5880 5879 5879 5878 5878 5878 5878 5878 5878 5878 5878 5877 5877 5878 5877 5877 5877 5876
5904 5903 5902 5902 5901 5900 5899 5898 5897 5895 5894 5893 5892 5891 5890 5889 5887 5886 5885 5884 5883 5882 5881 5880 5879 5878 5878 5877 5876 5876 5876 5875 5875 5875 5875 5875 5875 5875 5875 5874 5873 5873 5873
5902 5901 5901 5900 5899 5898 5897 5896 5895 5894 5893 5892 5890 5889 5889 5887 5886 5885 5884 5883 5881 5880 5880 5879 5877 5877 5876 5876 5875 5874 5873 5873 5873 5872 5872 5872 5872 5872 5871 5871 5871 5870 5869
5900 5899 5898 5898 5897 5896 5894 5893 5893 5892 5891 5890 5889 5888 5887 5885 5884 5883 5882 5881 5880 5879 5878 5877 5876 5875 5874 5874 5873 5872 5871 5870 5870 5870 5870 5869 5869 5869 5868 5868 5868 5867 5866
5896 5896 5896 5895 5894 5893 5892 5891 5890 5889 5888 5887 5886 5885 5884 5883 5882 5881 5879 5878 5877 5876 5875 5875 5874 5873 5872 5871 5870 5869 5868 5868 5867 5867 5867 5866 5866 5865 5865 5865 5864 5864 5863
5892 5893 5893 5892 5891 5890 5890 5888 5887 5886 5885 5884 5883 5882 5881 5880 5879 5878 5876 5875 5874 5873 5873 5872 5871 5870 5869 5868 5867 5866 5866 5865 5864 5864 5863 5863 5863 5862 5862 5861 5861 5860 5859
5888 5889 5889 5889 5888 5887 5886 5885 5884 5882 5882 5881 5879 5878 5877 5876 5875 5874 5873 5872 5871 5870 5869 5868 5868 5867 5866 5865 5864 5863 5863 5862 5861 5860 5860 5859 5859 5858 5858 5857 5856 5856 5855
5884 5884 5885 5885 5884 5884 5883 5882 5881 5879 5877 5877 5876 5875 5873 5872 5872 5871 5869 5868 5867 5866 5865 5864 5863 5862 5862 5861 5860 5860 5859 5858 5857 5856 5856 5855 5855 5854 5853 5852 5851 5851 5850
5879 5880 5880 5880 5880 5879 5879 5878 5876 5875 5874 5873 5872 5871 5869 5868 5867 5866 5864 5863 5862 5861 5859 5859 5858 5857 5856 5856 5855 5855 5854 5853 5853 5852 5851 5851 5850 5849 5848 5847 5846 5845 5844
5874 5874 5875 5875 5875 5874 5873 5872 5871 5871 5870 5869 5867 5866 5865 5864 5862 5860 5859 5858 5856 5855 5853 5852 5852 5851 5851 5850 5849 5849 5849 5848 5848 5847 5846 5846 5845 5844 5843 5842 5841 5840 5839
5868 5869 5869 5869 5869 5869 5868 5867 5866 5865 5864 5863 5862 5860 5859 5858 5856 5854 5853 5852 5850 5849 5847 5846 5846 5845 5845 5844 5844 5843 5843 5843 5842 5841 5840 5839 5839 5838 5837 5836 5835 5834 5832
5862 5863 5863 5863 5863 5862 5862 5861 5860 5859 5858 5857 5856 5855 5853 5852 5850 5848 5847 5846 5844 5843 5841 5841 5840 5839 5838 5838 5838 5837 5837 5836 5836 5835 5834 5833 5832 5831 5830 5830 5828 5827 5826
5856 5856 5856 5856 5856 5855 5855 5854 5853 5852 5851 5850 5849 5848 5847 5845 5843 5842 5840 5839 5838 5836 5835 5834 5833 5832 5832 5831 5831 5830 5830 5830 5829 5828 5827 5826 5825 5824 5823 5822 5821 5820 5818
5848 5849 5849 5849 5849 5848 5848 5847 5846 5845 5844 5843 5842 5841 5840 5839 5837 5835 5834 5832 5831 5829 5828 5827 5826 5825 5825 5825 5824 5824 5823 5823 5822 5821 5820 5819 5819 5817 5816 5815 5813 5812 5811
5841 5841 5841 5841 5841 5840 5840 5839 5839 5838 5837 5836 5835 5833 5832 5831 5830 5828 5826 5825 5823 5822 5820 5819 5818 5818 5818 5818 5817 5817 5816 5816 5815 5814 5813 5812 5811 5809 5808 5807 5805 5804 5803
5832 5832 5833 5832 5832 5832 5832 5831 5830 5830 5829 5827 5826 5825 5824 5823 5821 5820 5818 5817 5815 5814 5813 5812 5811 5811 5811 5810 5809 5809 5808 5808 5807 5806 5805 5804 5803 5801 5800 5798 5797 5795 5794
5824 5824 5824 5824 5823 5823 5822 5822 5821 5820 5819 5818 5818 5817 5815 5814 5813 5811 5810 5808 5807 5806 5804 5804 5803 5803 5802 5801 5800 5799 5799 5799 5798 5797 5796 5795 5794 5793 5791 5789 5788 5786 5785
5815 5815 5815 5815 5814 5813 5812 5812 5811 5811 5810 5809 5808 5807 5806 5805 5803 5802 5800 5799 5798 5797 5795 5794 5794 5793 5792 5792 5791 5790 5789 5789 5789 5788 5787 5786 5785 5783 5782 5780 5779 5777 5775
5806 5806 5806 5805 5804 5803 5803 5802 5801 5800 5800 5799 5798 5797 5796 5794 5793 5792 5790 5789 5787 5786 5785 5784 5784 5783 5782 5781 5780 5779 5779 5779 5778 5778 5777 5776 5775 5774 5772 5771 5769 5767 5765
5796 5795 5795 5794 5793 5793 5792 5791 5790 5790 5789 5788 5787 5786 5785 5784 5782 5781 5780 5778 5776 5775 5774 5774 5773 5772 5771 5769 5768 5769 5768 5768 5767 5767 5766 5765 5764 5763 5762 5760 5759 5757 5755
5785 5784 5784 5783 5782 5782 5781 5781 5780 5779 5778 5778 5777 5776 5774 5773 5772 5770 5769 5766 5765 5764 5763 5762 5762 5761 5760 5758 5758 5757 5757 5757 5756 5755 5755 5754 5754 5753 5751 5750 5748 5746 5745
5773 5772 5772 5772 5771 5771 5770 5769 5769 5768 5767 5767 5766 5764 5763 5762 5760 5759 5757 5754 5754 5753 5751 5750 5749 5748 5748 5747 5746 5746 5746 5745 5744 5743 5743 5743 5742 5741 5739 5738 5737 5735 5734